Regional Weather Roundup
Issued by NWS

Home | Current Version | Previous Version | Text Only | Print | Product List | Glossary On
Versions: 1 2 3 4 5 6 7 8 9 10 11 12 13 14 15 16 17 18 19 20 21 22 23 24 25 26 27 28 29 30 31 32 33 34 35 36 37 38 39 40 41 42 43 44 45 46 47 48 49 50
000
ASUS43 KLSX 292307
RWRMO

WEATHER SUMMARY FOR MISSOURI
NATIONAL WEATHER SERVICE SPRINGFIELD MO
600 PM CDT MON JUN 29 2015

NOTE: "FAIR" INDICATES FEW OR NO CLOUDS BELOW 12,000 FEET WITH NO
       SIGNIFICANT WEATHER AND/OR OBSTRUCTIONS TO VISIBILITY.
       CURRENT SKY AND/OR WEATHER CONDITIONS ARE NOT AVAILABLE FOR
       CHILLICOTHE AND FARMINGTON.

MOZ001>031-035>038-043-044-053-054-300000-
...NORTHERN AND WESTERN MISSOURI...

CITY           SKY/WX    TMP DP  RH WIND       PRES   REMARKS
KANSAS CTY INT MOSUNNY   84  65  52 NW6       29.91S
KANSAS C DTWN  SUNNY     86  63  45 NW9       29.89S
LEE`S SUMMIT   MOSUNNY   83  63  50 VRB5      29.91F
ST JOSEPH      SUNNY     86  62  44 NW9       29.89F
CHILLICOTHE      N/A     84  64  50 NW5       29.88F
KIRKSVILLE     SUNNY     81  66  60 NW5       29.87F

$$
MOZ066>068-077>081-088>096-101>105-300000-
...SOUTHWEST MISSOURI...

CITY           SKY/WX    TMP DP  RH WIND       PRES   REMARKS
SPRINGFIELD    MOSUNNY   84  63  49 NW9       29.93S
JOPLIN         SUNNY     85  63  47 N6        29.93F

$$
MOZ032>034-039>042-045>050-055>058-069>072-300000-
...CENTRAL MISSOURI...

CITY           SKY/WX    TMP DP  RH WIND       PRES   REMARKS
COLUMBIA       SUNNY     84  65  52 NW12      29.88S
JEFFERSON CITY SUNNY     84  61  45 W8        29.86F
ROLLA          MOSUNNY   82  66  58 W8        29.88F
SEDALIA        SUNNY     84  65  52 W8G17     29.90F
WHITEMAN AFB   MOSUNNY   84  65  52 W8        29.88F
WARRENSBURG    SUNNY     82  63  51 W6        29.89F
OSAGE BEACH    SUNNY     82  64  54 W6        29.90F

$$
MOZ051-052-059>065-300000-
...EAST CENTRAL MISSOURI...

CITY           SKY/WX    TMP DP  RH WIND       PRES   REMARKS
ST LOUIS INTL  PTSUNNY   83  64  52 NW6       29.85F
SPIRIT OF STL  PTSUNNY   83  66  56 CALM      29.83F
ST CHARLES     MOSUNNY   80  68  66 N3        29.84S

$$
MOZ072>076-082>087-097>100-106>115-300000-
...SOUTH CENTRAL AND SOUTHEAST MISSOURI...

CITY           SKY/WX    TMP DP  RH WIND       PRES   REMARKS
CAPE GIRARDEAU SUNNY     87  64  46 NW9       29.83F
FARMINGTON     MOSUNNY   82  64  54 NW6       29.91S
POPLAR BLUFF   SUNNY     89  64  43 NW8       29.84S HX  90
WEST PLAINS    SUNNY     84  64  50 NW7       29.92F

$$


USA.gov is the U.S. government's official web portal to all federal, state and local government web resources and services.